Auburn, AL

3:13 PM CST on December 08, 2019 (GMT -0600)
Auburn-opelika-pitts

Weather History for KAUO - November, 2019

Change the Weather History Date:

Thursday, November 21, 2019

  Actual Average Record
Temperature  
Mean Temperature 57 °F -  
Max Temperature 66 °F - 79 °F (1979)
Min Temperature 48 °F - 22 °F (1968)
Degree Days  
Heating Degree Days 8    
Month to date heating degree days 279  
Since 1 July heating degree days 330  
Growing Degree Days 6 (Base 50)    
Moisture  
Dew Point 42 °F    
Average Humidity 61    
Maximum Humidity 80    
Minimum Humidity 45    
Precipitation  
Precipitation 0.00 in - 2.00 in (1962)
Month to date precipitation 2.63  
Year to date precipitation 35.58  
Sea Level Pressure  
Sea Level Pressure 30.30 in    
Wind  
Wind Speed 5 mph (SE)    
Max Wind Speed 12 mph    
Max Gust Speed -    
Visibility 10 miles    
Events      
T = Trace of Precipitation, MM = Missing Value Source: NWS Daily Summary

Daily Weather History Graph

Daily Weather History Graph

Search for Another Location

Airport or City:

Astronomy

Nov. 21, 2019 Rise Set
Actual Time 6:16 AM CST 4:38 PM CST
Civil Twilight 5:50 AM CST 5:04 PM CST
Nautical Twilight 5:20 AM CST 5:34 PM CST
Astronomical Twilight 4:50 AM CST 6:03 PM CST
Moon 12:36 AM CST (11/21) 1:44 PM CST (11/21)
Length of Visible Light 11h 14m
Length of Day
10h 21m
Waning Crescent, 29% of the Moon is Illuminated
Nov 21
Waning Crescent
Nov 26
New
Dec 4
First Quarter
Dec 11
Full
Dec 18
Last Quarter

Hourly Weather History & Observations

Time (CST) Temp. Dew Point Humidity Pressure Visibility Wind Dir Wind Speed Gust Speed Precip Events Conditions
12:56 AM 52.0 °F 37.0 °F 57% 30.30 in 10.0 mi ENE 6.9 mph - N/A   Clear
1:56 AM 51.1 °F 37.0 °F 59% 30.31 in 10.0 mi ENE 6.9 mph - N/A   Clear
2:56 AM 51.1 °F 37.9 °F 61% 30.31 in 10.0 mi East 4.6 mph - N/A   Clear
4:56 AM 50.0 °F 39.0 °F 66% 30.34 in 8.0 mi East 3.5 mph - N/A   Clear
5:56 AM 48.9 °F 39.0 °F 69% 30.37 in 10.0 mi ESE 3.5 mph - N/A   Clear
7:56 AM 52.0 °F 41.0 °F 66% 30.38 in 6.0 mi SSE 6.9 mph - N/A   Haze
9:56 AM 60.1 °F 42.1 °F 51% 30.36 in 10.0 mi South 11.5 mph - N/A   Clear
10:56 AM 62.1 °F 42.1 °F 48% 30.34 in 10.0 mi SSE 6.9 mph - N/A   Clear
11:56 AM 64.9 °F 43.0 °F 45% 30.31 in 10.0 mi South 9.2 mph - N/A   Clear
12:56 PM 64.0 °F 42.1 °F 45% 30.28 in 10.0 mi SSE 5.8 mph - N/A   Clear
1:56 PM 64.0 °F 44.1 °F 48% 30.27 in 10.0 mi SSE 5.8 mph - N/A   Clear
2:56 PM 63.0 °F 44.1 °F 50% 30.26 in 10.0 mi SSE 4.6 mph - N/A   Clear
5:56 PM 55.9 °F 45.0 °F 67% 30.28 in 10.0 mi East 4.6 mph - N/A   Clear
6:56 PM 55.0 °F 44.1 °F 67% 30.28 in 10.0 mi ESE 4.6 mph - N/A   Clear
7:56 PM 55.9 °F 44.1 °F 64% 30.27 in 10.0 mi SE 5.8 mph - N/A   Clear
8:56 PM 54.0 °F 44.1 °F 69% 30.25 in 10.0 mi SSE 5.8 mph - N/A   Clear
9:56 PM 52.0 °F 44.1 °F 74% 30.25 in 10.0 mi Calm Calm - N/A   Clear
10:56 PM 50.0 °F 44.1 °F 80% 30.24 in 10.0 mi Calm Calm - N/A   Clear
11:56 PM 52.0 °F 44.1 °F 74% 30.22 in 10.0 mi SSE 3.5 mph - N/A   Clear